カタログに戻る

ONEWEB-0123

運用中通信PO
NORAD 47269·PAYLOAD·🇬🇧 United Kingdom

打ち上げ Dec 18, 2020 から Vostochny Cosmodrome

Loading…

次のパス (今後24時間)

TLE

最新Source: CelesTrak SupGP

元期: Sep 15, 2026, 00:37 UTC

1 47269C 20100M   26258.02584909  .00001179  00000+0  32809-2 0  2580
2 47269  87.8986 332.8288 0001862 103.9875 311.2037 13.12442203    10

AllMySatでONEWEB-0123をリアルタイム追跡

Download on the App Store